Overview Statistics Trail Chart Weather Telemetry Raw packets
 

This is the latest recevied weather packets stored in our database for station/object K4WCH. If no packets are shown the sender has not sent any weather packets the latest 10 day(s).

<< 13 14 15 16 17 18 19 >>
Time Temp. Humidity Pressure Rain* Wind** Luminosity Snow
1788567159 23.89° C 98% 1014.9 hPa 0.51 mm - 0 W/m² -
1788566855 23.33° C 98% 1015.3 hPa 0.51 mm - 0 W/m² -
1788566551 23.33° C 98% 1015.3 hPa 1.27 mm - 0 W/m² -
1788566246 23.33° C 98% 1015.3 hPa 0.51 mm - 0 W/m² -
1788565941 23.33° C 98% 1015.4 hPa 1.27 mm - 0 W/m² -
1788565635 23.33° C 98% 1015.4 hPa 0.51 mm - 0 W/m² -
1788565331 23.33° C 98% 1015.3 hPa 0 mm - 0 W/m² -
1788565026 23.33° C 98% 1015.5 hPa 0 mm - 0 W/m² -
1788564722 23.33° C 98% 1015.5 hPa 0 mm - 0 W/m² -
1788564419 23.33° C 98% 1015.3 hPa 0 mm - 0 W/m² -
1788564115 23.33° C 98% 1015.3 hPa 0 mm - 1 W/m² -
1788563810 23.33° C 98% 1015.3 hPa 0 mm - 1 W/m² -
1788563505 23.33° C 97% 1015.3 hPa 0.51 mm - 1 W/m² -
1788563204 23.33° C 97% 1015.3 hPa 0.51 mm - 2 W/m² -
1788562900 23.33° C 97% 1015.3 hPa 0.51 mm - 2 W/m² -
1788562598 23.33° C 97% 1015.4 hPa 1.78 mm - 2 W/m² -
1788562292 23.33° C 97% 1015.6 hPa 3.56 mm - 2 W/m² -
1788561987 23.33° C 97% 1015.5 hPa 7.11 mm - 3 W/m² -
1788561682 23.33° C 97% 1015.6 hPa 12.7 mm - 3 W/m² -
1788561381 23.33° C 97% 1015.2 hPa 26.92 mm - 3 W/m² -
1788561076 23.33° C 96% 1015.5 hPa 41.4 mm - 3 W/m² -
1788560772 23.33° C 96% 1015.6 hPa 49.78 mm - 2 W/m² -
1788560468 23.89° C 96% 1015.5 hPa 48.51 mm - 2 W/m² -
1788560168 23.89° C 95% 1015.3 hPa 45.47 mm - 2 W/m² -
1788559868 24.44° C 94% 1015.4 hPa 22.86 mm - 2 W/m² -

* Rain latest hour (hover to see other rain measurements)
** Current wind speed in m/s (hover to see current wind gust speed)